Tracking 17267 objects as of 31-August-2015
HD Live streaming from Space Station

SL-16 DEB

Track SL-16 DEB now!
10-day predictions
SL-16 DEB is classified as:


NORAD ID: 19658
Int'l Code: 1988-102E
Perigee: 844.3 km
Apogee: 1,138.8 km
Inclination: 71.0 °
Period: 104.8 minutes
Semi major axis: 7362 km
RCS: 0.0923 m2 (small)
Launch date: November 23, 1988
Source: Commonwealth of Independent States (former USSR) (CIS)

Note: This is SATELLITE DEBRIS
Your satellite tracking list
Your tracking list is empty





NASA's NSSDC Master Catalog

Two Line Element Set (TLE):
1 19658U 88102E   15242.21170831  .00000038  00000-0  74928-4 0  9990
2 19658 071.0225 282.9468 0199973 233.0771 193.7243 13.74238692341909

Source of the keplerian elements: AFSPC

N2YO: 284